Location: W�rzburg
(49.7529°N, 9.8822°E)
Time: 00:03:08
(UTC+01:00)

ISS - Pass Details

Date: 09 January 2018
Orbit: 402 x 407 km, 51.6° (Epoch: 20 January)

Event Time Altitude Azimuth Distance (km) Brightness Sun altitude
Exits shadow 07:21:38 11° 282° (WNW) 1,395 -1.8 -8.5°
Maximum altitude 07:24:39 50° 207° (SSW) 528 -3.3 -8.0°
Drops below altitude 10° 07:27:50 10° 131° (SE) 1,465 0.5 -7.6°
Sets 07:29:57 0° 126° (SE) 2,323 2.2 -7.2°
